Year,Month,Day,Hour,Minute,Value (Times are PST for temperature in C)
2016,05,06,00,00,9.30
2016,05,06,00,01,9.30
2016,05,06,00,02,9.30
2016,05,06,00,03,9.30
2016,05,06,00,04,9.20
2016,05,06,00,05,9.20
2016,05,06,00,06,9.20
2016,05,06,00,07,9.20
2016,05,06,00,08,9.20
2016,05,06,00,09,9.20
2016,05,06,00,10,9.20
2016,05,06,00,11,9.20
2016,05,06,00,12,9.20
2016,05,06,00,13,9.20
2016,05,06,00,14,9.10
2016,05,06,00,15,9.10
2016,05,06,00,16,9.10
2016,05,06,00,17,9.10
2016,05,06,00,18,9.10
2016,05,06,00,19,9.10
2016,05,06,00,20,9.10
2016,05,06,00,21,9.00
2016,05,06,00,22,9.00
2016,05,06,00,23,9.00
2016,05,06,00,24,9.00
2016,05,06,00,25,8.90
2016,05,06,00,26,8.90
2016,05,06,00,27,8.90
2016,05,06,00,28,8.90
2016,05,06,00,29,8.90
2016,05,06,00,30,8.90
2016,05,06,00,31,8.80
2016,05,06,00,32,8.80
2016,05,06,00,33,8.80
2016,05,06,00,34,8.80
2016,05,06,00,35,8.80
2016,05,06,00,36,8.80
2016,05,06,00,37,8.80
2016,05,06,00,38,8.70
2016,05,06,00,39,8.70
2016,05,06,00,40,8.70
2016,05,06,00,41,8.70
2016,05,06,00,42,8.70
2016,05,06,00,43,8.70
2016,05,06,00,44,8.70
2016,05,06,00,45,8.70
2016,05,06,00,46,8.60
2016,05,06,00,47,8.60
2016,05,06,00,48,8.60
2016,05,06,00,49,8.60
2016,05,06,00,50,8.60
2016,05,06,00,51,8.60
2016,05,06,00,52,8.60
2016,05,06,00,53,8.60
2016,05,06,00,54,8.60
2016,05,06,00,55,8.50
2016,05,06,00,56,8.50
2016,05,06,00,57,8.50
2016,05,06,00,58,8.50
2016,05,06,00,59,8.50
2016,05,06,01,00,8.50
2016,05,06,01,01,8.50
2016,05,06,01,02,8.50
2016,05,06,01,03,8.40
2016,05,06,01,04,8.40
2016,05,06,01,05,8.40
2016,05,06,01,06,8.40
2016,05,06,01,07,8.40
2016,05,06,01,08,8.40
2016,05,06,01,09,8.40
2016,05,06,01,10,8.30
2016,05,06,01,11,8.30
2016,05,06,01,12,8.30
2016,05,06,01,13,8.30
2016,05,06,01,14,8.30
2016,05,06,01,15,8.30
2016,05,06,01,16,8.30
2016,05,06,01,17,8.30
2016,05,06,01,18,8.30
2016,05,06,01,19,8.20
2016,05,06,01,20,8.20
2016,05,06,01,21,8.20
2016,05,06,01,22,8.20
2016,05,06,01,23,8.20
2016,05,06,01,24,8.20
2016,05,06,01,25,8.20
2016,05,06,01,26,8.20
2016,05,06,01,27,8.10
2016,05,06,01,28,8.10
2016,05,06,01,29,8.10
2016,05,06,01,30,8.10
2016,05,06,01,31,8.10
2016,05,06,01,32,8.00
2016,05,06,01,33,8.00
2016,05,06,01,34,8.00
2016,05,06,01,35,8.00
2016,05,06,01,36,8.00
2016,05,06,01,37,8.00
2016,05,06,01,38,7.90
2016,05,06,01,39,7.90
2016,05,06,01,40,7.90
2016,05,06,01,41,7.90
2016,05,06,01,42,7.90
2016,05,06,01,43,7.90
2016,05,06,01,44,7.90
2016,05,06,01,45,7.80
2016,05,06,01,46,7.80
2016,05,06,01,47,7.80
2016,05,06,01,48,7.80
2016,05,06,01,49,7.80
2016,05,06,01,50,7.80
2016,05,06,01,51,7.80
2016,05,06,01,52,7.80
2016,05,06,01,53,7.80
2016,05,06,01,54,7.80
2016,05,06,01,55,7.70
2016,05,06,01,56,7.80
2016,05,06,01,57,7.70
2016,05,06,01,58,7.70
2016,05,06,01,59,7.70
2016,05,06,02,00,7.70
2016,05,06,02,01,7.70
2016,05,06,02,02,7.60
2016,05,06,02,03,7.60
2016,05,06,02,04,7.60
2016,05,06,02,05,7.60
2016,05,06,02,06,7.60
2016,05,06,02,07,7.60
2016,05,06,02,08,7.60
2016,05,06,02,09,7.70
2016,05,06,02,10,7.70
2016,05,06,02,11,7.60
2016,05,06,02,12,7.60
2016,05,06,02,13,7.60
2016,05,06,02,14,7.60
2016,05,06,02,15,7.60
2016,05,06,02,16,7.60
2016,05,06,02,17,7.60
2016,05,06,02,18,7.50
2016,05,06,02,19,7.50
2016,05,06,02,20,7.50
2016,05,06,02,21,7.50
2016,05,06,02,22,7.40
2016,05,06,02,23,7.40
2016,05,06,02,24,7.40
2016,05,06,02,25,7.40
2016,05,06,02,26,7.40
2016,05,06,02,27,7.30
2016,05,06,02,28,7.30
2016,05,06,02,29,7.30
2016,05,06,02,30,7.30
2016,05,06,02,31,7.30
2016,05,06,02,32,7.30
2016,05,06,02,33,7.30
2016,05,06,02,34,7.30
2016,05,06,02,35,7.30
2016,05,06,02,36,7.30
2016,05,06,02,37,7.30
2016,05,06,02,38,7.30
2016,05,06,02,39,7.30
2016,05,06,02,40,7.20
2016,05,06,02,41,7.20
2016,05,06,02,42,7.20
2016,05,06,02,43,7.20
2016,05,06,02,44,7.20
2016,05,06,02,45,7.20
2016,05,06,02,46,7.20
2016,05,06,02,47,7.10
2016,05,06,02,48,7.10
2016,05,06,02,49,7.10
2016,05,06,02,50,7.10
2016,05,06,02,51,7.10
2016,05,06,02,52,7.10
2016,05,06,02,53,7.00
2016,05,06,02,54,7.00
2016,05,06,02,55,7.00
2016,05,06,02,56,7.00
2016,05,06,02,57,7.00
2016,05,06,02,58,7.00
2016,05,06,02,59,7.00
2016,05,06,03,00,7.00
2016,05,06,03,01,6.90
2016,05,06,03,02,6.90
2016,05,06,03,03,6.90
2016,05,06,03,04,6.90
2016,05,06,03,05,6.80
2016,05,06,03,06,6.80
2016,05,06,03,07,6.80
2016,05,06,03,08,6.70
2016,05,06,03,09,6.70
2016,05,06,03,10,6.70
2016,05,06,03,11,6.70
2016,05,06,03,12,6.70
2016,05,06,03,13,6.60
2016,05,06,03,14,6.60
2016,05,06,03,15,6.60
2016,05,06,03,16,6.60
2016,05,06,03,17,6.60
2016,05,06,03,18,6.60
2016,05,06,03,19,6.60
2016,05,06,03,20,6.60
2016,05,06,03,21,6.60
2016,05,06,03,22,6.50
2016,05,06,03,23,6.50
2016,05,06,03,24,6.50
2016,05,06,03,25,6.50
2016,05,06,03,26,6.50
2016,05,06,03,27,6.50
2016,05,06,03,28,6.50
2016,05,06,03,29,6.50
2016,05,06,03,30,6.50
2016,05,06,03,31,6.40
2016,05,06,03,32,6.40
2016,05,06,03,33,6.40
2016,05,06,03,34,6.40
2016,05,06,03,35,6.40
2016,05,06,03,36,6.40
2016,05,06,03,37,6.40
2016,05,06,03,38,6.40
2016,05,06,03,39,6.40
2016,05,06,03,40,6.40
2016,05,06,03,41,6.40
2016,05,06,03,42,6.40
2016,05,06,03,43,6.40
2016,05,06,03,44,6.40
2016,05,06,03,45,6.40
2016,05,06,03,46,6.40
2016,05,06,03,47,6.40
2016,05,06,03,48,6.40
2016,05,06,03,49,6.40
2016,05,06,03,50,6.40
2016,05,06,03,51,6.40
2016,05,06,03,52,6.40
2016,05,06,03,53,6.50
2016,05,06,03,54,6.50
2016,05,06,03,55,6.50
2016,05,06,03,56,6.60
2016,05,06,03,57,6.60
2016,05,06,03,58,6.60
2016,05,06,03,59,6.60
2016,05,06,04,00,6.60
2016,05,06,04,01,6.60
2016,05,06,04,02,6.60
2016,05,06,04,03,6.70
2016,05,06,04,04,6.70
2016,05,06,04,05,6.70
2016,05,06,04,06,6.70
2016,05,06,04,07,6.70
2016,05,06,04,08,6.70
2016,05,06,04,09,6.70
2016,05,06,04,10,6.70
2016,05,06,04,11,6.80
2016,05,06,04,12,6.80
2016,05,06,04,13,6.80
2016,05,06,04,14,6.80
2016,05,06,04,15,6.90
2016,05,06,04,16,6.90
2016,05,06,04,17,6.90
2016,05,06,04,18,6.90
2016,05,06,04,19,6.90
2016,05,06,04,20,6.90
2016,05,06,04,21,7.00
2016,05,06,04,22,7.00
2016,05,06,04,23,7.10
2016,05,06,04,24,7.10
2016,05,06,04,25,7.10
2016,05,06,04,26,7.10
2016,05,06,04,27,7.10
2016,05,06,04,28,7.10
2016,05,06,04,29,7.10
2016,05,06,04,30,7.10
2016,05,06,04,31,7.10
2016,05,06,04,32,7.20
2016,05,06,04,33,7.20
2016,05,06,04,34,7.40
2016,05,06,04,35,7.40
2016,05,06,04,36,7.50
2016,05,06,04,37,7.60
2016,05,06,04,38,7.70
2016,05,06,04,39,7.80
2016,05,06,04,40,7.80
2016,05,06,04,41,7.80
2016,05,06,04,42,7.90
2016,05,06,04,43,7.90
2016,05,06,04,44,8.00
2016,05,06,04,45,8.10
2016,05,06,04,46,8.10
2016,05,06,04,47,8.20
2016,05,06,04,48,8.30
2016,05,06,04,49,8.30
2016,05,06,04,50,8.40
2016,05,06,04,51,8.40
2016,05,06,04,52,8.40
2016,05,06,04,53,8.40
2016,05,06,04,54,8.40
2016,05,06,04,55,8.50
2016,05,06,04,56,8.50
2016,05,06,04,57,8.50
2016,05,06,04,58,8.60
2016,05,06,04,59,8.60
2016,05,06,05,00,8.60
2016,05,06,05,01,8.70
2016,05,06,05,02,8.70
2016,05,06,05,03,8.80
2016,05,06,05,04,8.90
2016,05,06,05,05,8.90
2016,05,06,05,06,9.00
2016,05,06,05,07,9.00
2016,05,06,05,08,9.10
2016,05,06,05,09,9.10
2016,05,06,05,10,9.10
2016,05,06,05,11,9.20
2016,05,06,05,12,9.20
2016,05,06,05,13,9.20
2016,05,06,05,14,9.20
2016,05,06,05,15,9.20
2016,05,06,05,16,9.20
2016,05,06,05,17,9.20
2016,05,06,05,18,9.30
2016,05,06,05,19,9.30
2016,05,06,05,20,9.30
2016,05,06,05,21,9.30
2016,05,06,05,22,9.30
2016,05,06,05,23,9.30
2016,05,06,05,24,9.30
2016,05,06,05,25,9.30
2016,05,06,05,26,9.30
2016,05,06,05,27,9.40
2016,05,06,05,28,9.40
2016,05,06,05,29,9.40
2016,05,06,05,30,9.50
2016,05,06,05,31,9.50
2016,05,06,05,32,9.50
2016,05,06,05,33,9.50
2016,05,06,05,34,9.50
2016,05,06,05,35,9.50
2016,05,06,05,36,9.50
2016,05,06,05,37,9.60
2016,05,06,05,38,9.60
2016,05,06,05,39,9.60
2016,05,06,05,40,9.60
2016,05,06,05,41,9.50
2016,05,06,05,42,9.50
2016,05,06,05,43,9.40
2016,05,06,05,44,9.30
2016,05,06,05,45,9.30
2016,05,06,05,46,9.30
2016,05,06,05,47,9.20
2016,05,06,05,48,9.20
2016,05,06,05,49,9.20
2016,05,06,05,50,9.20
2016,05,06,05,51,9.20
2016,05,06,05,52,9.20
2016,05,06,05,53,9.20
2016,05,06,05,54,9.10
2016,05,06,05,55,9.10
2016,05,06,05,56,9.10
2016,05,06,05,57,9.10
2016,05,06,05,58,9.10
2016,05,06,05,59,9.10
2016,05,06,06,00,9.10
2016,05,06,06,01,9.10
2016,05,06,06,02,9.00
2016,05,06,06,03,9.00
2016,05,06,06,04,9.00
2016,05,06,06,05,9.00
2016,05,06,06,06,9.00
2016,05,06,06,07,9.00
2016,05,06,06,08,9.00
2016,05,06,06,09,9.00
2016,05,06,06,10,8.90
2016,05,06,06,11,8.90
2016,05,06,06,12,8.90
2016,05,06,06,13,8.90
2016,05,06,06,14,8.80
2016,05,06,06,15,8.80
2016,05,06,06,16,8.80
2016,05,06,06,17,8.80
2016,05,06,06,18,8.80
2016,05,06,06,19,8.80
2016,05,06,06,20,8.70
2016,05,06,06,21,8.70
2016,05,06,06,22,8.70
2016,05,06,06,23,8.70
2016,05,06,06,24,8.70
2016,05,06,06,25,8.70
2016,05,06,06,26,8.70
2016,05,06,06,27,8.70
2016,05,06,06,28,8.70
2016,05,06,06,29,8.60
2016,05,06,06,30,8.60
2016,05,06,06,31,8.60
2016,05,06,06,32,8.60
2016,05,06,06,33,8.60
2016,05,06,06,34,8.50
2016,05,06,06,35,8.50
2016,05,06,06,36,8.50
2016,05,06,06,37,8.50
2016,05,06,06,38,8.50
2016,05,06,06,39,8.50
2016,05,06,06,40,8.50
2016,05,06,06,41,8.50
2016,05,06,06,42,8.40
2016,05,06,06,43,8.40
2016,05,06,06,44,8.40
2016,05,06,06,45,8.50
2016,05,06,06,46,8.60
2016,05,06,06,47,8.60
2016,05,06,06,48,8.60
2016,05,06,06,49,8.60
2016,05,06,06,50,8.60
2016,05,06,06,51,8.60
2016,05,06,06,52,8.60
2016,05,06,06,53,8.60
2016,05,06,06,54,8.60
2016,05,06,06,55,8.60
2016,05,06,06,56,8.60
2016,05,06,06,57,8.70
2016,05,06,06,58,8.70
2016,05,06,06,59,8.80
2016,05,06,07,00,8.80
2016,05,06,07,01,8.80
2016,05,06,07,02,8.90
2016,05,06,07,03,8.90
2016,05,06,07,04,9.00
2016,05,06,07,05,9.00
2016,05,06,07,06,9.10
2016,05,06,07,07,9.20
2016,05,06,07,08,9.30
2016,05,06,07,09,9.40
2016,05,06,07,10,9.50
2016,05,06,07,11,9.60
2016,05,06,07,12,9.70
2016,05,06,07,13,9.90
2016,05,06,07,14,10.00
2016,05,06,07,15,10.10
2016,05,06,07,16,10.20
2016,05,06,07,17,10.30
2016,05,06,07,18,10.50
2016,05,06,07,19,10.60
2016,05,06,07,20,10.80
2016,05,06,07,21,10.90
2016,05,06,07,22,11.10
2016,05,06,07,23,11.20
2016,05,06,07,24,11.40
2016,05,06,07,25,11.60
2016,05,06,07,26,11.70
2016,05,06,07,27,11.90
2016,05,06,07,28,12.10
2016,05,06,07,29,12.20
2016,05,06,07,30,12.40
2016,05,06,07,31,12.60
2016,05,06,07,32,12.80
2016,05,06,07,33,12.90
2016,05,06,07,34,13.10
2016,05,06,07,35,13.30
2016,05,06,07,36,13.40
2016,05,06,07,37,13.50
2016,05,06,07,38,13.60
2016,05,06,07,39,13.70
2016,05,06,07,40,13.80
2016,05,06,07,41,13.90
2016,05,06,07,42,14.10
2016,05,06,07,43,14.20
2016,05,06,07,44,14.30
2016,05,06,07,45,14.40
2016,05,06,07,46,14.60
2016,05,06,07,47,14.70
2016,05,06,07,48,14.80
2016,05,06,07,49,15.00
2016,05,06,07,50,15.00
2016,05,06,07,51,15.10
2016,05,06,07,52,15.20
2016,05,06,07,53,15.30
2016,05,06,07,54,15.40
2016,05,06,07,55,15.50
2016,05,06,07,56,15.60
2016,05,06,07,57,15.70
2016,05,06,07,58,15.80
2016,05,06,07,59,15.90
2016,05,06,08,00,15.90
2016,05,06,08,01,16.00
2016,05,06,08,02,16.10
2016,05,06,08,03,16.10
2016,05,06,08,04,16.20
2016,05,06,08,05,16.20
2016,05,06,08,06,16.30
2016,05,06,08,07,16.30
2016,05,06,08,08,16.40
2016,05,06,08,09,16.50
2016,05,06,08,10,16.50
2016,05,06,08,11,16.60
2016,05,06,08,12,16.60
2016,05,06,08,13,16.60
2016,05,06,08,14,16.70
2016,05,06,08,15,16.70
2016,05,06,08,16,16.80
2016,05,06,08,17,16.80
2016,05,06,08,18,16.90
2016,05,06,08,19,16.90
2016,05,06,08,20,17.00
2016,05,06,08,21,17.00
2016,05,06,08,22,17.10
2016,05,06,08,23,17.10
2016,05,06,08,24,17.10
2016,05,06,08,25,17.10
2016,05,06,08,26,17.20
2016,05,06,08,27,17.20
2016,05,06,08,28,17.30
2016,05,06,08,29,17.30
2016,05,06,08,30,17.50
2016,05,06,08,31,17.50
2016,05,06,08,32,17.60
2016,05,06,08,33,17.60
2016,05,06,08,34,17.60
2016,05,06,08,35,17.60
2016,05,06,08,36,17.70
2016,05,06,08,37,17.70
2016,05,06,08,38,17.70
2016,05,06,08,39,17.80
2016,05,06,08,40,17.80
2016,05,06,08,41,17.90
2016,05,06,08,42,17.90
2016,05,06,08,43,18.00
2016,05,06,08,44,18.10
2016,05,06,08,45,18.10
2016,05,06,08,46,18.10
2016,05,06,08,47,18.20
2016,05,06,08,48,18.30
2016,05,06,08,49,18.30
2016,05,06,08,50,18.40
2016,05,06,08,51,18.50
2016,05,06,08,52,18.60
2016,05,06,08,53,18.60
2016,05,06,08,54,18.70
2016,05,06,08,55,18.70
2016,05,06,08,56,18.80
2016,05,06,08,57,18.80
2016,05,06,08,58,18.90
2016,05,06,08,59,18.90
2016,05,06,09,00,18.90
2016,05,06,09,01,18.80
2016,05,06,09,02,18.80
2016,05,06,09,03,18.70
2016,05,06,09,04,18.70
2016,05,06,09,05,18.70
2016,05,06,09,06,18.70
2016,05,06,09,07,18.80
2016,05,06,09,08,18.80
2016,05,06,09,09,18.80
2016,05,06,09,10,18.80
2016,05,06,09,11,18.80
2016,05,06,09,12,18.80
2016,05,06,09,13,18.80
2016,05,06,09,14,18.80
2016,05,06,09,15,18.90
2016,05,06,09,16,18.90
2016,05,06,09,17,19.00
2016,05,06,09,18,19.10
2016,05,06,09,19,19.20
2016,05,06,09,20,19.30
2016,05,06,09,21,19.30
2016,05,06,09,22,19.30
2016,05,06,09,23,19.40
2016,05,06,09,24,19.40
2016,05,06,09,25,19.50
2016,05,06,09,26,19.50
2016,05,06,09,27,19.60
2016,05,06,09,28,19.70
2016,05,06,09,29,19.80
2016,05,06,09,30,19.80
2016,05,06,09,31,19.80
2016,05,06,09,32,19.80
2016,05,06,09,33,19.90
2016,05,06,09,34,19.90
2016,05,06,09,35,20.00
2016,05,06,09,36,20.00
2016,05,06,09,37,20.10
2016,05,06,09,38,20.10
2016,05,06,09,39,20.20
2016,05,06,09,40,20.20
2016,05,06,09,41,20.20
2016,05,06,09,42,20.10
2016,05,06,09,43,20.20
2016,05,06,09,44,20.20
2016,05,06,09,45,20.20
2016,05,06,09,46,20.30
2016,05,06,09,47,20.40
2016,05,06,09,48,20.60
2016,05,06,09,49,20.70
2016,05,06,09,50,20.70
2016,05,06,09,51,20.70
2016,05,06,09,52,20.70
2016,05,06,09,53,20.70
2016,05,06,09,54,20.70
2016,05,06,09,55,20.80
2016,05,06,09,56,20.80
2016,05,06,09,57,20.90
2016,05,06,09,58,21.00
2016,05,06,09,59,21.00
2016,05,06,10,00,21.10
2016,05,06,10,01,21.10
2016,05,06,10,02,21.10
2016,05,06,10,03,21.20
2016,05,06,10,04,21.20
2016,05,06,10,05,21.30
2016,05,06,10,06,21.40
2016,05,06,10,07,21.50
2016,05,06,10,08,21.50
2016,05,06,10,09,21.60
2016,05,06,10,10,21.50
2016,05,06,10,11,21.40
2016,05,06,10,12,21.40
2016,05,06,10,13,21.40
2016,05,06,10,14,21.40
2016,05,06,10,15,21.40
2016,05,06,10,16,21.40
2016,05,06,10,17,21.40
2016,05,06,10,18,21.50
2016,05,06,10,19,21.60
2016,05,06,10,20,21.70
2016,05,06,10,21,21.80
2016,05,06,10,22,22.00
2016,05,06,10,23,22.00
2016,05,06,10,24,22.00
2016,05,06,10,25,21.90
2016,05,06,10,26,21.90
2016,05,06,10,27,22.00
2016,05,06,10,28,22.10
2016,05,06,10,29,22.00
2016,05,06,10,30,22.00
2016,05,06,10,31,22.00
2016,05,06,10,32,22.10
2016,05,06,10,33,22.10
2016,05,06,10,34,22.10
2016,05,06,10,35,22.20
2016,05,06,10,36,22.20
2016,05,06,10,37,22.20
2016,05,06,10,38,22.30
2016,05,06,10,39,22.30
2016,05,06,10,40,22.30
2016,05,06,10,41,22.30
2016,05,06,10,42,22.30
2016,05,06,10,43,22.20
2016,05,06,10,44,22.20
2016,05,06,10,45,22.10
2016,05,06,10,46,22.10
2016,05,06,10,47,22.10
2016,05,06,10,48,22.10
2016,05,06,10,49,22.10
2016,05,06,10,50,22.30
2016,05,06,10,51,22.40
2016,05,06,10,52,22.50
2016,05,06,10,53,22.70
2016,05,06,10,54,22.80
2016,05,06,10,55,22.90
2016,05,06,10,56,23.00
2016,05,06,10,57,23.10
2016,05,06,10,58,23.20
2016,05,06,10,59,23.20
2016,05,06,11,00,23.20
2016,05,06,11,01,23.20
2016,05,06,11,02,23.30
2016,05,06,11,03,23.30
2016,05,06,11,04,23.30
2016,05,06,11,05,23.40
2016,05,06,11,06,23.40
2016,05,06,11,07,23.50
2016,05,06,11,08,23.60
2016,05,06,11,09,23.70
2016,05,06,11,10,23.80
2016,05,06,11,11,23.80
2016,05,06,11,12,23.90
2016,05,06,11,13,24.00
2016,05,06,11,14,24.00
2016,05,06,11,15,24.00
2016,05,06,11,16,23.90
2016,05,06,11,17,24.00
2016,05,06,11,18,24.00
2016,05,06,11,19,24.10
2016,05,06,11,20,24.20
2016,05,06,11,21,24.30
2016,05,06,11,22,24.30
2016,05,06,11,23,24.30
2016,05,06,11,24,24.30
2016,05,06,11,25,24.30
2016,05,06,11,26,24.30
2016,05,06,11,27,24.30
2016,05,06,11,28,24.40
2016,05,06,11,29,24.40
2016,05,06,11,30,24.30
2016,05,06,11,31,24.30
2016,05,06,11,32,24.30
2016,05,06,11,33,24.30
2016,05,06,11,34,24.30
2016,05,06,11,35,24.20
2016,05,06,11,36,24.10
2016,05,06,11,37,24.10
2016,05,06,11,38,24.10
2016,05,06,11,39,24.10
2016,05,06,11,40,24.10
2016,05,06,11,41,24.00
2016,05,06,11,42,24.00
2016,05,06,11,43,24.10
2016,05,06,11,44,24.10
2016,05,06,11,45,24.10
2016,05,06,11,46,24.20
2016,05,06,11,47,24.20
2016,05,06,11,48,24.30
2016,05,06,11,49,24.30
2016,05,06,11,50,24.40
2016,05,06,11,51,24.40
2016,05,06,11,52,24.50
2016,05,06,11,53,24.60
2016,05,06,11,54,24.60
2016,05,06,11,55,24.70
2016,05,06,11,56,24.70
2016,05,06,11,57,24.80
2016,05,06,11,58,24.90
2016,05,06,11,59,25.00
2016,05,06,12,00,25.10
2016,05,06,12,01,25.10
2016,05,06,12,02,25.20
2016,05,06,12,03,25.20
2016,05,06,12,04,25.10
2016,05,06,12,05,25.10
2016,05,06,12,06,25.00
2016,05,06,12,07,25.00
2016,05,06,12,08,25.00
2016,05,06,12,09,25.10
2016,05,06,12,10,25.20
2016,05,06,12,11,25.20
2016,05,06,12,12,25.20
2016,05,06,12,13,25.20
2016,05,06,12,14,25.20
2016,05,06,12,15,25.10
2016,05,06,12,16,24.90
2016,05,06,12,17,24.80
2016,05,06,12,18,24.80
2016,05,06,12,19,24.80
2016,05,06,12,20,24.70
2016,05,06,12,21,24.80
2016,05,06,12,22,24.70
2016,05,06,12,23,24.70
2016,05,06,12,24,24.60
2016,05,06,12,25,24.60
2016,05,06,12,26,24.50
2016,05,06,12,27,24.40
2016,05,06,12,28,24.40
2016,05,06,12,29,24.40
2016,05,06,12,30,24.30
2016,05,06,12,31,24.30
2016,05,06,12,32,24.30
2016,05,06,12,33,24.30
2016,05,06,12,34,24.30
2016,05,06,12,35,24.40
2016,05,06,12,36,24.50
2016,05,06,12,37,24.60
2016,05,06,12,38,24.70
2016,05,06,12,39,24.80
2016,05,06,12,40,24.90
2016,05,06,12,41,24.90
2016,05,06,12,42,24.90
2016,05,06,12,43,24.90
2016,05,06,12,44,24.80
2016,05,06,12,45,24.70
2016,05,06,12,46,24.50
2016,05,06,12,47,24.40
2016,05,06,12,48,24.30
2016,05,06,12,49,24.20
2016,05,06,12,50,24.20
2016,05,06,12,51,24.20
2016,05,06,12,52,24.20
2016,05,06,12,53,24.20
2016,05,06,12,54,24.30
2016,05,06,12,55,24.30
2016,05,06,12,56,24.40
2016,05,06,12,57,24.40
2016,05,06,12,58,24.50
2016,05,06,12,59,24.50
2016,05,06,13,00,24.60
2016,05,06,13,01,24.70
2016,05,06,13,02,24.60
2016,05,06,13,03,24.50
2016,05,06,13,04,24.40
2016,05,06,13,05,24.40
2016,05,06,13,06,24.40
2016,05,06,13,07,24.30
2016,05,06,13,08,24.40
2016,05,06,13,09,24.40
2016,05,06,13,10,24.30
2016,05,06,13,11,24.30
2016,05,06,13,12,24.30
2016,05,06,13,13,24.30
2016,05,06,13,14,24.30
2016,05,06,13,15,24.30
2016,05,06,13,16,24.30
2016,05,06,13,17,24.40
2016,05,06,13,18,24.50
2016,05,06,13,19,24.50
2016,05,06,13,20,24.60
2016,05,06,13,21,24.60
2016,05,06,13,22,24.70
2016,05,06,13,23,24.80
2016,05,06,13,24,24.90
2016,05,06,13,25,24.90
2016,05,06,13,26,25.00
2016,05,06,13,27,25.00
2016,05,06,13,28,25.10
2016,05,06,13,29,25.20
2016,05,06,13,30,25.30
2016,05,06,13,31,25.40
2016,05,06,13,32,25.50
2016,05,06,13,33,25.60
2016,05,06,13,34,25.70
2016,05,06,13,35,25.80
2016,05,06,13,36,25.90
2016,05,06,13,37,26.00
2016,05,06,13,38,26.10
2016,05,06,13,39,26.10
2016,05,06,13,40,26.10
2016,05,06,13,41,26.10
2016,05,06,13,42,26.10
2016,05,06,13,43,26.10
2016,05,06,13,44,26.00
2016,05,06,13,45,26.00
2016,05,06,13,46,26.00
2016,05,06,13,47,26.00
2016,05,06,13,48,26.00
2016,05,06,13,49,25.90
2016,05,06,13,50,25.90
2016,05,06,13,51,25.80
2016,05,06,13,52,25.80
2016,05,06,13,53,25.80
2016,05,06,13,54,25.80
2016,05,06,13,55,25.80
2016,05,06,13,56,25.80
2016,05,06,13,57,25.90
2016,05,06,13,58,25.90
2016,05,06,13,59,26.00
2016,05,06,14,00,26.00
2016,05,06,14,01,26.10
2016,05,06,14,02,26.10
2016,05,06,14,03,26.20
2016,05,06,14,04,26.20
2016,05,06,14,05,26.30
2016,05,06,14,06,26.40
2016,05,06,14,07,26.40
2016,05,06,14,08,26.50
2016,05,06,14,09,26.40
2016,05,06,14,10,26.40
2016,05,06,14,11,26.40
2016,05,06,14,12,26.50
2016,05,06,14,13,26.50
2016,05,06,14,14,26.60
2016,05,06,14,15,26.70
2016,05,06,14,16,26.80
2016,05,06,14,17,26.90
2016,05,06,14,18,26.90
2016,05,06,14,19,26.90
2016,05,06,14,20,26.80
2016,05,06,14,21,26.80
2016,05,06,14,22,26.80
2016,05,06,14,23,26.70
2016,05,06,14,24,26.80
2016,05,06,14,25,26.80
2016,05,06,14,26,26.80
2016,05,06,14,27,26.90
2016,05,06,14,28,26.90
2016,05,06,14,29,26.80
2016,05,06,14,30,26.70
2016,05,06,14,31,26.70
2016,05,06,14,32,26.70
2016,05,06,14,33,26.70
2016,05,06,14,34,26.70
2016,05,06,14,35,26.70
2016,05,06,14,36,26.70
2016,05,06,14,37,26.60
2016,05,06,14,38,26.60
2016,05,06,14,39,26.50
2016,05,06,14,40,26.40
2016,05,06,14,41,26.40
2016,05,06,14,42,26.40
2016,05,06,14,43,26.40
2016,05,06,14,44,26.40
2016,05,06,14,45,26.40
2016,05,06,14,46,26.40
2016,05,06,14,47,26.40
2016,05,06,14,48,26.30
2016,05,06,14,49,26.30
2016,05,06,14,50,26.30
2016,05,06,14,51,26.40
2016,05,06,14,52,26.40
2016,05,06,14,53,26.40
2016,05,06,14,54,26.40
2016,05,06,14,55,26.50
2016,05,06,14,56,26.60
2016,05,06,14,57,26.70
2016,05,06,14,58,26.80
2016,05,06,14,59,26.80
2016,05,06,15,00,26.80
2016,05,06,15,01,26.90
2016,05,06,15,02,26.90
2016,05,06,15,03,26.90
2016,05,06,15,04,26.90
2016,05,06,15,05,26.90
2016,05,06,15,06,27.00
2016,05,06,15,07,27.00
2016,05,06,15,08,27.00
2016,05,06,15,09,27.00
2016,05,06,15,10,27.00
2016,05,06,15,11,27.00
2016,05,06,15,12,27.00
2016,05,06,15,13,26.90
2016,05,06,15,14,26.90
2016,05,06,15,15,27.00
2016,05,06,15,16,27.00
2016,05,06,15,17,27.10
2016,05,06,15,18,27.20
2016,05,06,15,19,27.20
2016,05,06,15,20,27.30
2016,05,06,15,21,27.30
2016,05,06,15,22,27.40
2016,05,06,15,23,27.40
2016,05,06,15,24,27.40
2016,05,06,15,25,27.40
2016,05,06,15,26,27.40
2016,05,06,15,27,27.50
2016,05,06,15,28,27.50
2016,05,06,15,29,27.50
2016,05,06,15,30,27.60
2016,05,06,15,31,27.50
2016,05,06,15,32,27.40
2016,05,06,15,33,27.30
2016,05,06,15,34,27.30
2016,05,06,15,35,27.20
2016,05,06,15,36,27.30
2016,05,06,15,37,27.30
2016,05,06,15,38,27.30
2016,05,06,15,39,27.40
2016,05,06,15,40,27.40
2016,05,06,15,41,27.50
2016,05,06,15,42,27.50
2016,05,06,15,43,27.60
2016,05,06,15,44,27.70
2016,05,06,15,45,27.70
2016,05,06,15,46,27.70
2016,05,06,15,47,27.70
2016,05,06,15,48,27.70
2016,05,06,15,49,27.70
2016,05,06,15,50,27.70
2016,05,06,15,51,27.80
2016,05,06,15,52,27.80
2016,05,06,15,53,27.80
2016,05,06,15,54,27.90
2016,05,06,15,55,27.90
2016,05,06,15,56,27.90
2016,05,06,15,57,28.00
2016,05,06,15,58,28.00
2016,05,06,15,59,28.00
2016,05,06,16,00,28.00
2016,05,06,16,01,27.90
2016,05,06,16,02,27.80
2016,05,06,16,03,27.60
2016,05,06,16,04,27.40
2016,05,06,16,05,27.10
2016,05,06,16,06,26.90
2016,05,06,16,07,26.70
2016,05,06,16,08,26.50
2016,05,06,16,09,26.30
2016,05,06,16,10,26.20
2016,05,06,16,11,26.10
2016,05,06,16,12,26.00
2016,05,06,16,13,25.90
2016,05,06,16,14,25.90
2016,05,06,16,15,25.70
2016,05,06,16,16,25.50
2016,05,06,16,17,25.30
2016,05,06,16,18,25.10
2016,05,06,16,19,24.90
2016,05,06,16,20,24.80
2016,05,06,16,21,24.70
2016,05,06,16,22,24.60
2016,05,06,16,23,24.50
2016,05,06,16,24,24.40
2016,05,06,16,25,24.30
2016,05,06,16,26,24.20
2016,05,06,16,27,24.20
2016,05,06,16,28,24.20
2016,05,06,16,29,24.20
2016,05,06,16,30,24.20
2016,05,06,16,31,24.20
2016,05,06,16,32,24.20
2016,05,06,16,33,24.10
2016,05,06,16,34,24.10
2016,05,06,16,35,24.10
2016,05,06,16,36,24.10
2016,05,06,16,37,24.10
2016,05,06,16,38,24.20
2016,05,06,16,39,24.30
2016,05,06,16,40,24.30
2016,05,06,16,41,24.30
2016,05,06,16,42,24.40
2016,05,06,16,43,24.50
2016,05,06,16,44,24.60
2016,05,06,16,45,24.70
2016,05,06,16,46,24.80
2016,05,06,16,47,24.90
2016,05,06,16,48,24.80
2016,05,06,16,49,24.80
2016,05,06,16,50,24.80
2016,05,06,16,51,24.90
2016,05,06,16,52,24.90
2016,05,06,16,53,24.90
2016,05,06,16,54,24.90
2016,05,06,16,55,24.90
2016,05,06,16,56,24.90
2016,05,06,16,57,24.80
2016,05,06,16,58,24.80
2016,05,06,16,59,24.80
2016,05,06,17,00,24.80
2016,05,06,17,01,24.80
2016,05,06,17,02,24.80
2016,05,06,17,03,24.80
2016,05,06,17,04,24.80
2016,05,06,17,05,24.80
2016,05,06,17,06,24.80
2016,05,06,17,07,24.80
2016,05,06,17,08,24.80
2016,05,06,17,09,24.70
2016,05,06,17,10,24.70
2016,05,06,17,11,24.70
2016,05,06,17,12,24.70
2016,05,06,17,13,24.70
2016,05,06,17,14,24.70
2016,05,06,17,15,24.70
2016,05,06,17,16,24.70
2016,05,06,17,17,24.70
2016,05,06,17,18,24.60
2016,05,06,17,19,24.60
2016,05,06,17,20,24.50
2016,05,06,17,21,24.40
2016,05,06,17,22,24.30
2016,05,06,17,23,24.20
2016,05,06,17,24,24.10
2016,05,06,17,25,24.10
2016,05,06,17,26,24.10
2016,05,06,17,27,24.00
2016,05,06,17,28,24.00
2016,05,06,17,29,24.00
2016,05,06,17,30,24.00
2016,05,06,17,31,24.00
2016,05,06,17,32,24.00
2016,05,06,17,33,24.10
2016,05,06,17,34,24.10
2016,05,06,17,35,24.10
2016,05,06,17,36,24.10
2016,05,06,17,37,24.20
2016,05,06,17,38,24.30